Namest Nad Oslav, Czech Republic

2:50 PM CET on December 11, 2017 (GMT +0100)
Namest

Weather History for LKNA - November, 2013

Change the Weather History Date:

Saturday, November 16, 2013

  Actual Average Record
Temperature  
Mean Temperature 42 °F -  
Max Temperature 48 °F - - ()
Min Temperature 37 °F - - ()
Degree Days  
Heating Degree Days 22    
Moisture  
Dew Point 39 °F    
Average Humidity 91    
Maximum Humidity 100    
Minimum Humidity 76    
Precipitation  
Precipitation 0.00 in - - ()
Sea Level Pressure  
Sea Level Pressure 30.35 in    
Wind  
Wind Speed 3 mph ()    
Max Wind Speed 7 mph    
Max Gust Speed -    
Visibility 4.2 miles    
Events      
T = Trace of Precipitation, MM = Missing Value Source: Averaged Metar Reports

Daily Weather History Graph

Daily Weather History Graph

Search for Another Location

Airport or City:

Trip Planner

Search our weather history database for the weather conditions in past years. The results will help you decide how hot, cold, wet, or windy it might be!

Date:

Astronomy

Nov. 16, 2013 Rise Set
Actual Time 7:07 AM CET 4:12 PM CET
Civil Twilight 6:32 AM CET 4:47 PM CET
Nautical Twilight 5:53 AM CET 5:26 PM CET
Astronomical Twilight 5:15 AM CET 6:04 PM CET
Moon 3:41 PM CET (11/16) 5:40 AM CET (11/16)
Length of Visible Light 10h 15m
Length of Day
9h 05m
Waxing Gibbous, 99% of the Moon is Illuminated
Nov 16
Waxing Gibbous
Nov 17
Full
Nov 25
Last Quarter
Dec 3
New
Dec 9
First Quarter

Hourly Weather History & Observations

Time (CET) Temp. Windchill Dew Point Humidity Pressure Visibility Wind Dir Wind Speed Gust Speed Precip Events Conditions
12:00 AM 42.8 °F 41.1 °F 39.2 °F 87% 30.33 in 5.0 mi ENE 3.5 mph - N/A   Mostly Cloudy
1:00 AM 41.0 °F 38.0 °F 39.2 °F 93% 30.33 in 5.0 mi NE 4.6 mph - N/A   Mostly Cloudy
2:00 AM 41.0 °F 38.0 °F 39.2 °F 93% 30.33 in 4.3 mi NE 4.6 mph - N/A   Mostly Cloudy
3:00 AM 41.0 °F 38.0 °F 39.2 °F 93% 30.33 in 4.3 mi ENE 4.6 mph - N/A   Mostly Cloudy
4:00 AM 41.0 °F 38.0 °F 39.2 °F 93% 30.33 in 4.3 mi ENE 4.6 mph - N/A   Mostly Cloudy
5:00 AM 39.2 °F 37.0 °F 37.4 °F 93% 30.36 in 4.3 mi NE 3.5 mph - N/A   Scattered Clouds
6:00 AM 41.0 °F 38.0 °F 39.2 °F 93% 30.36 in 4.3 mi NNE 4.6 mph - N/A   Unknown
7:00 AM 39.2 °F 37.0 °F 37.4 °F 93% 30.36 in 2.5 mi NE 3.5 mph - N/A   Partly Cloudy
8:00 AM 37.4 °F - 37.4 °F 100% 30.39 in 2.5 mi Calm Calm - N/A   Mostly Cloudy
9:00 AM 41.0 °F 39.0 °F 39.2 °F 93% 30.39 in 3.1 mi North 3.5 mph - N/A   Mostly Cloudy
10:00 AM 41.0 °F 36.4 °F 39.2 °F 93% 30.39 in 4.3 mi North 6.9 mph - N/A   Mostly Cloudy
11:00 AM 44.6 °F 43.1 °F 41.0 °F 87% 30.39 in 5.0 mi NNW 3.5 mph - N/A   Overcast
12:00 PM 44.6 °F - 41.0 °F 87% 30.39 in 5.6 mi Variable 1.2 mph - N/A   Mostly Cloudy
1:00 PM 46.4 °F - 41.0 °F 81% 30.36 in 6.2 mi Variable 1.2 mph - N/A   Mostly Cloudy
2:00 PM 48.2 °F - 41.0 °F 76% 30.36 in 6.2 mi Calm Calm - N/A   Mostly Cloudy
3:00 PM 48.2 °F - 41.0 °F 76% 30.33 in 6.2 mi Variable 1.2 mph - N/A   Mostly Cloudy
4:00 PM 46.4 °F - 39.2 °F 76% 30.33 in 6.2 mi Calm Calm - N/A   Mostly Cloudy
5:00 PM 44.6 °F - 41.0 °F 87% 30.33 in 5.6 mi Calm Calm - N/A   Unknown
6:00 PM 42.8 °F - 41.0 °F 93% 30.33 in 4.3 mi SW 1.2 mph - N/A   Unknown
7:00 PM 41.0 °F - 41.0 °F 100% 30.33 in 3.1 mi SW 2.3 mph - N/A   Mist
8:00 PM 39.2 °F - 39.2 °F 100% 30.33 in 1.9 mi Variable 2.3 mph - N/A   Mist
9:00 PM 41.0 °F - 39.2 °F 93% 30.33 in 1.9 mi NNE 2.3 mph - N/A   Mist
10:00 PM 39.2 °F 37.0 °F 39.2 °F 100% 30.33 in 1.9 mi NNE 3.5 mph - N/A   Mist
11:00 PM 37.4 °F 32.8 °F 37.4 °F 100% 30.30 in 1.9 mi North 5.8 mph - N/A   Mist